Location: Recife
(8.0585°S, 34.8848°W)
Time: 05:01:48
(UTC-03:00)

Courier 1B - Pass Details

Date: 21 April 2026
Orbit: 962 x 1209 km, 28.3° (Epoch: 14 May)

Event Time Altitude Azimuth Distance (km) Brightness Sun altitude
Rises 01:49:53 0° 312° (NW) 3,732 - -52.5°
Reaches altitude 10° 01:52:36 10° 318° (NW) 2,816 - -51.9°
Maximum altitude 01:59:13 49° 31° (NNE) 1,359 - -50.2°
Exits shadow 02:04:28 18° 99° (E) 2,423 9.9 -49.0°
Drops below altitude 10° 02:06:16 10° 104° (ESE) 3,003 10.5 -48.5°
Sets 02:09:15 0° 109° (ESE) 4,001 11.3 -47.8°
